Le nostre stazioni meteo in Italia

Pubblicità
Il mio iltempo24.it
Aosta, Italia (16054): Temperatura & dewpoint: 19.06.2019 20:00:00 - 25.06.2019 20:00:00 (CEST)Aosta, Italia (16054): velocità del vento: 19.06.2019 20:00:00 - 25.06.2019 20:00:00 (CEST)Aosta, Italia (16054): direzione del vento: 19.06.2019 20:00:00 - 25.06.2019 20:00:00 (CEST)Aosta, Italia (16054): visibility: 19.06.2019 20:00:00 - 25.06.2019 20:00:00 (CEST)
Data & Tempo tt [°C] td [°C] ff [km/h] ff [kn] dd vv [km]
25.06.2019 20:00:00 29,0 19,3 21 11 E 10
25.06.2019 19:00:00 30,2 19,8 29 16 E 10
25.06.2019 18:00:00 30,4 19,7 29 16 E 10
25.06.2019 17:00:00 30,5 19,8 31 17 E 10
25.06.2019 16:00:00 30,5 19,8 29 16 E 10
25.06.2019 15:00:00 30,1 18,2 22 12 E 10
25.06.2019 14:00:00 30,4 17,8 21 11 E 10
25.06.2019 13:00:00 29,8 16,6 16 9 E 10
25.06.2019 12:00:00 28,7 18,1 8 4 E 10
25.06.2019 11:00:00 27,3 16,8 4 2 - 10
25.06.2019 10:00:00 25,3 19,1 2 1 E -
25.06.2019 09:00:00 23,3 18,8 0 0 N 10
25.06.2019 08:00:00 21,0 19,4 0 0 N 10
25.06.2019 07:00:00 17,5 16,1 0 0 N 10
25.06.2019 06:00:00 17,2 14,9 0 0 N 10
25.06.2019 05:00:00 17,9 15,1 0 0 N -
25.06.2019 04:00:00 18,8 16,2 2 1 SO -
25.06.2019 03:00:00 19,6 16,6 0 0 N -
25.06.2019 02:00:00 20,0 17,0 2 1 SO -
25.06.2019 01:00:00 20,2 16,8 2 1 SO -
25.06.2019 00:00:00 21,5 16,8 2 1 SO -
24.06.2019 23:00:00 21,6 16,9 2 1 SO -
24.06.2019 22:00:00 23,4 16,1 5 3 E 10
24.06.2019 21:00:00 26,2 16,9 16 9 E 10
24.06.2019 20:00:00 27,3 17,1 22 12 E 10
24.06.2019 19:00:00 28,6 17,7 34 18 E 10
24.06.2019 18:00:00 28,8 17,0 34 18 E 10
24.06.2019 17:00:00 29,1 17,3 29 16 E 10
24.06.2019 16:00:00 29,4 16,9 31 17 E 10
24.06.2019 15:00:00 29,6 16,0 24 13 E 10
24.06.2019 14:00:00 28,6 13,6 21 11 E 10
24.06.2019 13:00:00 28,1 12,8 16 9 E 10
24.06.2019 12:00:00 26,7 13,4 8 4 E 10
24.06.2019 11:00:00 25,0 12,0 5 3 - 10
24.06.2019 10:00:00 23,1 14,3 2 1 ESE -
24.06.2019 09:00:00 21,2 14,5 2 1 - 10
24.06.2019 08:00:00 18,3 14,9 2 1 - 10
24.06.2019 07:00:00 14,1 12,6 0 0 N 10
24.06.2019 06:00:00 14,1 12,1 4 2 - 10
24.06.2019 05:00:00 15,1 12,4 2 1 OSO -
24.06.2019 04:00:00 15,5 12,8 0 0 N -
24.06.2019 03:00:00 15,5 12,4 2 1 OSO -
24.06.2019 02:00:00 16,9 13,3 0 0 N -
24.06.2019 01:00:00 18,3 14,1 4 2 SO -
24.06.2019 00:00:00 19,5 14,4 4 2 OSO -
23.06.2019 23:00:00 19,6 14,3 0 0 N -
23.06.2019 22:00:00 21,5 13,6 0 0 N -
23.06.2019 21:00:00 25,2 12,4 15 8 E 10
23.06.2019 20:00:00 26,4 12,8 24 13 E 10
23.06.2019 19:00:00 27,4 12,6 29 16 E 10
23.06.2019 18:00:00 27,5 13,0 34 18 E 10
23.06.2019 17:00:00 28,0 14,2 31 17 E 10
23.06.2019 16:00:00 27,2 14,2 31 17 E 10
23.06.2019 15:00:00 26,3 13,4 28 15 E 10
23.06.2019 14:00:00 25,7 13,5 15 8 E -
23.06.2019 13:00:00 25,6 12,8 8 4 ENE 10
23.06.2019 12:00:00 23,6 12,2 5 3 - 10
23.06.2019 11:00:00 21,6 11,6 4 2 - 10
23.06.2019 10:00:00 19,7 12,2 4 2 - 10
23.06.2019 09:00:00 17,9 13,5 2 1 SSE -
23.06.2019 08:00:00 15,3 12,9 2 1 - 10
23.06.2019 07:00:00 11,9 11,0 4 2 - 10
23.06.2019 06:00:00 11,5 9,9 2 1 - 10
23.06.2019 05:00:00 11,7 10,1 0 0 N -
23.06.2019 04:00:00 12,2 10,6 2 1 OSO -
23.06.2019 03:00:00 13,1 11,5 2 1 NNE -
23.06.2019 02:00:00 13,4 11,3 0 0 N -
23.06.2019 01:00:00 - - - - - -
23.06.2019 00:00:00 - - - - - -
22.06.2019 23:00:00 16,0 13,4 4 2 SE -
22.06.2019 22:00:00 17,0 17,0 0 0 N 10
22.06.2019 21:00:00 19,0 18,0 4 2 - 10
22.06.2019 20:00:00 19,5 15,7 2 1 SSE -
22.06.2019 19:00:00 18,5 15,1 8 4 E 10
22.06.2019 18:00:00 20,5 11,9 21 11 O 3,0
22.06.2019 17:00:00 23,3 14,2 26 14 E 10
22.06.2019 16:00:00 23,4 13,8 31 17 E 10
22.06.2019 15:00:00 24,2 13,9 34 18 E 10
22.06.2019 14:00:00 24,4 10,6 18 10 E 10
22.06.2019 13:00:00 24,8 13,6 13 7 E 10
22.06.2019 12:00:00 22,9 13,8 8 4 E 10
22.06.2019 11:00:00 21,0 15,2 8 4 ESE 10
22.06.2019 10:00:00 20,2 14,7 2 1 - 10
22.06.2019 09:00:00 19,1 15,7 5 3 O 10
22.06.2019 08:00:00 17,6 15,3 8 4 O 10
22.06.2019 07:00:00 16,7 15,2 5 3 O 10
22.06.2019 06:00:00 16,5 15,0 2 1 - 10
22.06.2019 05:00:00 16,7 15,2 2 1 E -
22.06.2019 04:00:00 16,8 15,3 2 1 SO -
22.06.2019 03:00:00 16,9 15,4 4 2 SE -
22.06.2019 02:00:00 17,1 15,4 4 2 ESE -
22.06.2019 01:00:00 17,1 15,0 2 1 SSE -
22.06.2019 00:00:00 17,2 14,9 2 1 O -
21.06.2019 23:00:00 18,3 15,1 2 1 NNO -
21.06.2019 22:00:00 18,9 15,3 4 2 - 10
21.06.2019 21:00:00 19,8 15,0 5 3 N 10
21.06.2019 20:00:00 21,2 13,8 8 4 NNE 10
21.06.2019 19:00:00 21,7 13,8 21 11 E 10
21.06.2019 18:00:00 23,9 13,9 24 13 ESE 10
21.06.2019 17:00:00 25,9 14,6 22 12 E 10
21.06.2019 16:00:00 25,7 15,3 21 11 E 10
21.06.2019 15:00:00 26,0 14,7 22 12 E 10
21.06.2019 14:00:00 25,4 10,8 13 7 E 10
21.06.2019 13:00:00 23,9 12,8 4 2 - 10
21.06.2019 12:00:00 22,2 12,1 4 2 SO -
21.06.2019 11:00:00 21,3 14,4 5 3 OSO 10
21.06.2019 10:00:00 18,5 13,3 0 0 N 10
21.06.2019 09:00:00 17,8 13,4 4 2 S 10
21.06.2019 08:00:00 17,1 13,3 4 2 - 10
21.06.2019 07:00:00 16,4 13,8 2 1 - 10
21.06.2019 06:00:00 16,0 13,2 2 1 - 10
21.06.2019 05:00:00 16,1 13,1 0 0 N -
21.06.2019 04:00:00 16,2 13,0 0 0 N -
21.06.2019 03:00:00 15,8 12,5 0 0 N -
21.06.2019 02:00:00 17,0 12,5 4 2 ONO -
21.06.2019 01:00:00 16,0 11,9 2 1 SO -
21.06.2019 00:00:00 17,2 13,2 0 0 N -
20.06.2019 23:00:00 17,9 12,3 0 0 N -
20.06.2019 22:00:00 21,3 13,4 2 1 ESE -
20.06.2019 21:00:00 22,8 13,5 16 9 E 10
20.06.2019 20:00:00 24,0 12,9 28 15 E 10
20.06.2019 19:00:00 25,2 13,7 28 15 ESE 10
20.06.2019 18:00:00 26,1 15,1 29 16 ESE 10
20.06.2019 17:00:00 26,7 13,0 24 13 E 10
20.06.2019 16:00:00 26,5 13,5 26 14 E 10
20.06.2019 15:00:00 25,6 12,8 28 15 E 10
20.06.2019 14:00:00 26,8 8,7 24 13 E 10
20.06.2019 13:00:00 26,4 14,1 24 13 E 10
20.06.2019 12:00:00 25,6 13,7 8 4 - 10
20.06.2019 11:00:00 23,7 14,0 5 3 S 10
20.06.2019 10:00:00 20,9 13,7 4 2 - 10
20.06.2019 09:00:00 18,6 14,2 0 0 N 10
20.06.2019 08:00:00 16,9 14,5 0 0 N -
20.06.2019 07:00:00 14,5 13,3 4 2 - 10
20.06.2019 06:00:00 13,7 11,7 0 0 N 10
20.06.2019 05:00:00 14,2 12,4 0 0 N -
20.06.2019 04:00:00 14,6 13,3 2 1 OSO -
20.06.2019 03:00:00 14,5 12,5 0 0 N -
20.06.2019 02:00:00 15,5 13,1 0 0 N -
20.06.2019 01:00:00 16,7 13,7 2 1 S -
20.06.2019 00:00:00 18,2 15,2 0 0 N -
19.06.2019 23:00:00 19,2 15,4 2 1 NNO -
19.06.2019 22:00:00 20,8 15,0 8 4 E 10
19.06.2019 21:00:00 22,7 15,2 5 3 - 10
19.06.2019 20:00:00 24,7 14,7 22 12 E 10

tt = Temperatura
td = dewpoint
ff = velocità del vento
dd = direzione del vento
vv = visibility

Stazioni seguenti

WeatherPro
AMSI
MeteoEarth